Hourly Data Report for July 18, 2004

TORONTO CITY
ONTARIO

43°40'00.000" N
79°24'00.000" W
112.50 m
6158355
71508
XTO

Download Data

Hourly Data (July 2004)
Hourly Data Report for July 18, 2004
TIME
LST
Temp Definition
°C
Dew Point Definition
°C
Rel Hum Definition
%
Precip. Amount Definition
mm

Wind Dir Definition
10's deg

Wind Spd Definition
km/h
Visibility Definition
km
Stn Press Definition
kPa
Hmdx Definition


Wind Chill Definition


Weather Definition


00:00 21.3 16.5 74   LegendMM LegendMM LegendMM 100.04 26   LegendNANA
01:00 21.1 16.5 75   LegendMM LegendMM LegendMM 100.02 26   LegendNANA
02:00 20.7 16.9 79   LegendMM LegendMM LegendMM 100.02 26   LegendNANA
03:00 20.5 17.5 83   LegendMM LegendMM LegendMM 100.05 26   LegendNANA
04:00 19.8 16.9 83   LegendMM LegendMM LegendMM 100.04     LegendNANA
05:00 19.8 16.3 80   LegendMM LegendMM LegendMM 100.06     LegendNANA
06:00 19.9 16.2 79   LegendMM LegendMM LegendMM 100.04     LegendNANA
07:00 19.1 16.5 85   LegendMM LegendMM LegendMM 100.06     LegendNANA
08:00 19.4 17.8 90   LegendMM LegendMM LegendMM 100.07     LegendNANA
09:00 20.2 17.0 82   LegendMM LegendMM LegendMM 100.07 25   LegendNANA
10:00 22.7 17.8 74   LegendMM LegendMM LegendMM 100.07 29   LegendNANA
11:00 22.4 17.6 74   LegendMM LegendMM LegendMM 100.06 28   LegendNANA
12:00 22.3 18.2 78   LegendMM LegendMM LegendMM 100.03 28   LegendNANA
13:00 21.3 17.2 77   LegendMM LegendMM LegendMM 99.98 27   LegendNANA
14:00 21.5 18.2 81   LegendMM LegendMM LegendMM 99.89 28   LegendNANA
15:00 23.7 18.2 71   LegendMM LegendMM LegendMM 99.88 30   LegendNANA
16:00 22.3 18.3 78   LegendMM LegendMM LegendMM 99.84 29   LegendNANA
17:00 21.9 18.6 82   LegendMM LegendMM LegendMM 99.80 28   LegendNANA
18:00 22.7 18.1 75   LegendMM LegendMM LegendMM 99.73 29   LegendNANA
19:00 23.2 18.2 73   LegendMM LegendMM LegendMM 99.78 29   LegendNANA
20:00 21.1 16.4 75   LegendMM LegendMM LegendMM 99.78 26   LegendNANA
21:00 20.9 17.5 81   LegendMM LegendMM LegendMM 99.78 27   LegendNANA
22:00 20.8 17.2 80   LegendMM LegendMM LegendMM 99.78 26   LegendNANA
23:00 20.4 18.0 86   LegendMM LegendMM LegendMM 99.78 26   LegendNANA

Notes on Data Quality.

Legend

  • E = Estimated
  • M = Missing
  • NA = Not Available*
  • [empty] = Indicates an unobserved value
Date modified: